Flag Weather past 2 weeks in Wittmund, Lower Saxony, Germany

Now
41 °F

Quite cool.


Feels Like: 35 °F
Forecast: 36 / 41 °F
Wind: 9 mph from East

Location: Wittmundhaven

Current Time: Nov 25, 2014 at 9:53:04 PM

Latest Report: Nov 25, 2014 at 8:20 PM


Visibility: 0 mi

Pressure: 30.30 "Hg

Humidity: 93%

Dew point: 39 °F

Location of WittmundLocation

Historic Weather in Wittmund — Graph

°F

Wittmund temperature yesterday

Maximum temperature yesterday: 50 °F (at 12:20 AM)
Minimum temperature yesterday: 43 °F (at 11:20 PM)
Average temperature yesterday: 47 °F

Past Weeks' High & Low Weather Summary

 TemperatureHumidityPressure
High54 °F (Nov 14, 3:20 PM)100% (Nov 11, 3:20 AM)30.39 "Hg (Nov 11, 3:20 AM)
Low30 °F (Nov 21, 3:20 AM)50% (Nov 11, 1:20 PM)29.53 "Hg (Nov 16, 12:20 PM)
Average45 °F91%29.96 "Hg
* Reported Nov 10 8:20 PM — Nov 25 8:20 PM, Wittmund, Weather by CustomWeather, © 2014

Note: Actual official high and low records may vary slightly from our data, if they occured in-between our weather recording intervals... More about our weather records

Advertising

Wittmund weather history for previous 24 hours

 ConditionsComfort  
Time TempWeatherWind HumidityBarometerVisibility
8:20 PM
Nov 25
41 °FQuite cool.9 mph93%30.30 "Hg1 mi
7:20 PM39 °FChilly.7 mph100%30.30 "Hg1 mi
6:20 PM39 °FChilly.6 mph100%30.30 "Hg0 mi
5:20 PM41 °FFog.6 mph100%30.30 "Hg1 mi
5:00 PM43 °FFog.6 mph93%30.30 "Hg1 mi
4:20 PM43 °FFog.7 mph93%30.30 "Hg2 mi
4:00 PM45 °FFog.7 mph93%30.30 "Hg4 mi
3:20 PM46 °FPartly sunny.5 mph93%30.30 "Hg5 mi
3:02 PM46 °FPartly sunny.5 mph93%30.30 "Hg6 mi
2:20 PM46 °FPartly sunny.1 mph93%30.30 "Hg6 mi
1:20 PM46 °FPassing clouds.3 mph93%30.33 "HgN/A
12:20 PM45 °FScattered clouds.No wind93%30.33 "HgN/A
11:20 AM43 °FScattered clouds.1 mph93%30.33 "Hg5 mi
10:20 AM41 °FFog.3 mph93%30.33 "Hg3 mi
9:20 AM37 °FFog.2 mph100%30.33 "Hg1 mi
8:20 AM37 °FFog.3 mph100%30.33 "Hg1 mi
7:20 AM39 °FFog.3 mph100%30.30 "Hg2 mi
6:20 AM41 °FFog.3 mph93%30.30 "Hg5 mi
5:20 AM39 °FFog.3 mph100%30.30 "Hg5 mi
4:20 AM39 °FChilly.2 mph100%30.30 "Hg2 mi
3:20 AM39 °FChilly.5 mph100%30.30 "Hg1 mi
2:20 AM39 °FChilly.3 mph100%30.30 "Hg3 mi
1:20 AM41 °FQuite cool.6 mph93%30.30 "Hg4 mi
12:20 AM41 °FQuite cool.3 mph93%30.30 "Hg3 mi
11:20 PM
Nov 24
43 °FQuite cool.8 mph93%30.30 "Hg5 mi
10:20 PM45 °FQuite cool.6 mph87%30.30 "Hg6 mi
9:20 PM45 °FQuite cool.9 mph87%30.30 "Hg4 mi
Weather by CustomWeather, © 2014

See weather overviewHow to use our weather pages